Regional Weather Roundup
Issued by NWS Sterling, VA

Home | Current Version | Previous Version | Text Only | Print | Product List | Glossary On
Versions: 1 2 3 4 5 6 7 8 9 10 11 12 13 14 15 16 17 18 19 20 21 22 23 24 25 26 27 28 29 30 31 32 33 34 35 36 37 38 39 40 41 42 43 44 45 46 47 48 49
000
ASUS41 KLWX 311110
RWRLWX

REGIONAL WEATHER ROUNDUP
NATIONAL WEATHER SERVICE BALTIMORE MD/WASHINGTON DC
700 AM EDT MON AUG 31 2015

Note: "FAIR" indicates few or no clouds below 12,000 feet
with no significant weather and/or obstructions to visibility.
 TC=TEMPERATURE CELSIUS

 * =Non NWS site. Station does not report precipitation (e.g. rain,
    snow, etc.), thunder, or fog.

DCZ001-MDZ009-015-VAZ040>042-051-053>054-311200-
WASHINGTON METRO

CITY           SKY/WX    TMP DP  RH WIND       PRES   REMARKS
WASHINGTON NAT CLOUDY    75  67  76 S7        30.09R
DULLES         CLOUDY    70  66  87 CALM      30.08R
ANDREWS AFB    CLOUDY    74  65  75 SW7       30.07R
FT BELVOIR     CLOUDY    70  67  92 CALM      30.08R
QUANTICO       CLOUDY    73  64  73 CALM      30.09R
COLLEGE PARK*  CLOUDY    73  68  83 CALM      30.07R
LEESBURG*      CLOUDY    72  72 100 CALM      30.10R
GAITHERSBURG*  CLOUDY    72  64  78 CALM      30.13R

$$

MDZ006>007-011-014-311200-
BALTIMORE METRO

CITY           SKY/WX    TMP DP  RH WIND       PRES   REMARKS
BWI AIRPORT    CLOUDY    73  66  78 CALM      30.07R
MD SCIENCE CTR   N/A     78  66  66 MISG      30.07R
MARTIN STATE   CLEAR     75  70  83 CALM      30.07R
ANNAPOLIS      CLOUDY    74  64  71 SW5       30.07R
FORT MEADE*    CLOUDY    68  64  88 CALM      30.10R

$$

MDZ012-015-019>023-311200-
MARYLAND EASTERN SHORE

CITY           SKY/WX    TMP DP  RH WIND       PRES   REMARKS
OCEAN CITY     CLOUDY    76  69  79 SW6       30.09R
SALISBURY      CLOUDY    72  70  93 CALM      30.09R
BAY BRIDGE AP*   N/A     75  64  69 SW3       30.07S
CAMBRIDGE*     CLOUDY    77  70  78 CALM      30.08R
EASTON*        CLEAR     75  68  78 SW7       30.11R

$$

MDZ017>025-311200-
SOUTHERN MARYLAND

CITY           SKY/WX    TMP DP  RH WIND       PRES   REMARKS
PATUXENT RIVER LGT RAIN  74  66  76 SW6       30.09R
ST INIGOES     CLOUDY    76  69  79 S8        30.08S
LEONARDTOWN*   CLOUDY    73  64  73 CALM      30.11R

$$

MDZ003>005-311200-
NORTH CENTRAL MARYLAND

CITY           SKY/WX    TMP DP  RH WIND       PRES   REMARKS
FREDERICK*     CLOUDY    73  70  88 S6        30.10R
HAGERSTOWN APT CLOUDY    72  66  81 SE3       30.09R
WESTMINSTER*   CLOUDY    73  66  78 CALM      30.09R

$$

MDZ501>502-311200-
WESTERN MARYLAND

CITY           SKY/WX    TMP DP  RH WIND       PRES   REMARKS
OAKLAND*       CLOUDY    63  61  94 SW3       30.20R
CUMBERLAND*    CLOUDY    70  66  88 CALM      30.14R

$$

VAZ025>031-311200-
SHENANDOAH VALLEY

CITY           SKY/WX    TMP DP  RH WIND       PRES   REMARKS
WINCHESTER*    CLOUDY    73  63  68 CALM      30.10R
FRONT ROYAL*   CLOUDY    70  64  83 S5        30.10R
LURAY*         CLOUDY    68  64  88 CALM      30.12R
NEW MARKET*    CLOUDY    67  66  94 CALM      30.11R
STAUNTON*      CLOUDY    71  65  82 CALM      30.14S
WAYNESBORO*    FAIR      68  61  77 MISG      30.13S

$$

WVZ021-048>050-054>055-311200-
EASTERN WEST VIRGINIA PANHANDLE

CITY           SKY/WX    TMP DP  RH WIND       PRES   REMARKS
MARTINSBURG    CLOUDY    69  64  84 CALM      30.09R
PETERSBURG*    FOG       67  67  99 CALM      30.13R VSB 1/2

$$

VAZ036>039-050-311200-
CENTRAL FOOTHILLS

CITY           SKY/WX    TMP DP  RH WIND       PRES   REMARKS
CHARLOTTESVILL CLOUDY    70  66  87 CALM      30.10R
CULPEPER*      CLOUDY    69  66  90 CALM      30.10R
ORANGE*        CLOUDY    70  68  94 CALM      30.11R
GORDONSVILLE*  FAIR      68  67  98 CALM      30.10R FOG
WARRENTON*     FAIR      71  68  92 CALM      30.09R

$$

VAZ055>057-311200-
NORTH AND CENTRAL PIEDMONT

CITY           SKY/WX    TMP DP  RH WIND       PRES   REMARKS
FREDERICKSBRG* CLOUDY    75  67  76 CALM      30.08R
STAFFORD*      CLOUDY    70  64  82 SE3       30.13R

$$

NCZ024-NYZ072-PAZ021-071-VAZ022-071-311200-
OTHER REGIONAL OBSERVATIONS

CITY           SKY/WX    TMP DP  RH WIND       PRES   REMARKS
NEW YORK CITY  MOCLDY    76  67  73 CALM      30.06R
PHILADELPHIA   CLOUDY    76  67  73 SW8       30.06R
PITTSBURGH     MOCLDY    67  64  90 CALM      30.10R
ROANOKE        MOCLDY    67  66  97 W3        30.15R
RICHMOND       CLOUDY    74  66  76 CALM      30.10R
RALEIGH        RAIN      68  66  93 VRB5      30.10F FOG

$$

ANZ530>537-311200-
MARINE OBSERVATIONS

STATION/POSITION TIME  TEMP    WIND        PRES
                       AIR SEA DIR/SP/G
                 (UTC) (F)     (DEG/KT/KT) (MB)
THOMAS PT LIGHT  NOT AVBL

$$



USA.gov is the U.S. government's official web portal to all federal, state and local government web resources and services.